GEFSSGP_prec_meanprecacc_234.txt.gz
Total_Precipitation_Accumulation
0.10 0.27 0.52 0.87 1.59 1.71 1.17 0.71 0.57 0.45 0.43 0.39 0.39 0.39 0.50 0.73 1.11 1.63 1.06 0.65 0.65 0.83 1.04 1.38 1.64 1.46 1.38 1.28 1.28 1.19 1.14 1.10 1.05 1.09 1.13 1.09 1.03 0.91 0.80 0.74 0.75 0.78 0.76 0.69 0.77 0.81 0.76 0.84 0.96
0.21 0.41 0.64 1.10 1.60 1.25 0.90 0.66 0.55 0.38 0.36 0.39 0.52 0.53 0.44 0.55 0.57 0.66 0.77 0.73 0.59 0.71 0.93 1.04 1.38 1.35 1.30 1.22 1.20 1.14 1.03 0.92 0.93 0.93 0.94 0.91 0.91 0.84 0.71 0.70 0.71 0.73 0.70 0.71 0.80 0.82 0.82 0.82 0.87
0.32 0.50 0.76 1.15 1.07 0.69 0.58 0.48 0.38 0.36 0.41 0.50 0.59 0.62 0.62 0.65 0.56 0.66 0.68 0.62 0.61 0.67 0.82 1.07 1.26 1.18 1.15 1.08 1.05 1.05 0.99 0.90 0.85 0.82 0.86 0.82 0.79 0.77 0.69 0.68 0.69 0.72 0.72 0.72 0.78 0.87 0.89 0.87 0.87
0.38 0.57 0.69 0.79 0.58 0.32 0.25 0.27 0.29 0.39 0.58 0.79 0.81 0.79 0.75 0.61 0.54 0.58 0.64 0.60 0.56 0.54 0.62 0.91 1.12 1.05 1.09 1.02 0.94 0.93 0.92 0.90 0.83 0.81 0.82 0.84 0.84 0.84 0.74 0.66 0.68 0.76 0.79 0.78 0.83 0.96 0.96 0.88 0.88
0.32 0.54 0.76 0.64 0.35 0.26 0.20 0.20 0.31 0.45 0.64 0.80 0.85 0.94 1.00 0.78 0.57 0.57 0.57 0.61 0.54 0.48 0.53 0.75 1.03 0.98 0.98 0.94 0.89 0.84 0.84 0.87 0.82 0.80 0.77 0.81 0.87 0.83 0.76 0.74 0.76 0.75 0.78 0.80 0.86 0.95 0.95 0.95 0.99
0.40 0.56 0.58 0.44 0.25 0.19 0.21 0.25 0.32 0.44 0.62 0.78 1.06 1.19 1.21 1.03 0.85 0.73 0.61 0.75 0.66 0.54 0.50 0.67 0.98 1.00 0.96 0.92 0.85 0.83 0.79 0.79 0.78 0.77 0.76 0.77 0.82 0.82 0.81 0.83 0.86 0.78 0.81 0.87 0.88 0.89 0.87 0.94 1.07
0.34 0.40 0.35 0.27 0.21 0.18 0.20 0.24 0.32 0.48 0.63 0.87 1.16 1.33 1.26 1.18 1.00 0.87 0.81 0.90 0.98 0.84 0.74 0.72 0.85 0.93 0.92 0.98 0.95 0.86 0.82 0.80 0.79 0.81 0.80 0.77 0.77 0.78 0.79 0.90 0.92 0.85 0.87 0.90 0.93 0.91 0.94 1.01 1.11
0.19 0.24 0.22 0.16 0.16 0.15 0.18 0.22 0.35 0.57 0.74 0.95 1.15 1.30 1.42 1.15 0.97 1.06 1.27 1.47 1.58 1.46 1.28 1.04 0.92 1.02 0.90 0.93 0.99 0.96 0.80 0.78 0.82 0.87 0.84 0.85 0.93 0.95 1.02 0.98 0.95 0.98 1.06 1.09 1.14 1.10 1.07 1.19 1.28
0.13 0.20 0.15 0.08 0.09 0.15 0.17 0.21 0.31 0.41 0.61 0.85 1.03 1.09 1.02 0.99 1.15 1.44 1.84 1.93 1.76 1.79 1.64 1.51 1.35 1.11 1.06 1.02 0.94 1.07 0.98 0.94 1.07 1.24 1.20 1.26 1.57 1.52 1.59 1.27 1.21 1.32 1.50 1.55 1.61 1.59 1.51 1.47 1.42
0.10 0.13 0.08 0.03 0.03 0.06 0.12 0.19 0.29 0.44 0.86 1.44 1.42 1.09 0.88 1.08 1.34 1.58 1.91 2.15 1.74 1.74 1.58 1.64 1.67 1.35 1.18 1.13 1.37 1.71 1.50 1.52 1.60 1.83 1.72 2.00 2.11 1.98 1.46 1.52 1.72 1.84 2.18 2.30 2.36 2.40 2.15 1.84 1.72
0.08 0.07 0.05 0.02 0.02 0.02 0.05 0.13 0.23 0.49 0.96 1.64 1.80 1.35 1.17 1.29 1.66 1.69 1.93 2.15 2.08 1.91 1.79 1.60 1.87 1.64 1.55 1.70 1.78 1.93 2.01 1.98 1.98 2.08 2.10 2.34 2.14 1.83 1.74 2.09 2.45 2.62 2.77 2.95 3.01 2.91 2.43 2.36 2.55
0.06 0.05 0.03 0.02 0.02 0.02 0.10 0.18 0.29 0.38 0.80 1.15 1.12 1.01 1.18 1.39 1.74 1.97 2.03 2.26 2.31 2.18 2.07 1.97 2.02 2.01 2.00 2.04 1.97 1.84 1.66 1.67 1.83 2.02 2.04 2.24 2.34 2.34 2.33 2.51 2.63 2.84 3.21 3.59 3.52 3.45 3.18 3.17 2.98
0.04 0.06 0.06 0.04 0.04 0.05 0.11 0.15 0.28 0.44 0.55 0.67 0.65 0.84 1.27 1.55 1.94 2.28 2.65 2.86 2.92 2.86 2.72 2.71 2.79 2.61 2.41 2.36 2.02 1.64 1.56 1.47 1.52 1.67 1.82 1.85 2.18 2.45 2.49 2.36 2.40 2.37 2.61 3.03 3.57 3.51 3.69 3.65 3.28
0.05 0.05 0.06 0.05 0.05 0.06 0.11 0.15 0.32 0.54 0.53 0.63 0.80 1.03 1.42 1.87 2.25 2.50 3.25 3.65 3.90 3.83 3.66 3.46 3.51 3.07 2.73 2.51 2.14 1.85 1.60 1.63 1.55 1.47 1.50 1.73 1.98 2.26 2.24 2.20 2.40 2.46 2.40 2.56 3.00 3.19 3.56 3.54 3.18
0.10 0.12 0.11 0.09 0.07 0.07 0.12 0.30 0.47 0.59 0.79 0.82 0.99 1.20 1.53 2.12 2.59 3.05 3.58 4.33 4.76 4.93 4.55 3.96 3.68 3.36 3.09 2.83 2.36 1.97 1.79 1.56 1.62 1.61 1.52 1.58 1.71 1.94 1.95 2.04 2.06 2.15 2.08 2.15 2.37 2.60 2.87 2.83 2.69
0.13 0.22 0.28 0.16 0.10 0.10 0.16 0.55 0.72 0.62 0.93 1.25 1.19 1.45 1.85 2.37 2.85 3.52 4.20 5.04 5.57 5.74 5.15 4.42 3.72 3.73 3.58 3.29 2.64 2.14 1.88 1.76 1.69 1.62 1.50 1.42 1.45 1.43 1.56 1.61 1.60 1.63 1.52 1.64 1.96 2.04 2.28 2.52 2.59
0.13 0.20 0.26 0.25 0.15 0.13 0.22 0.63 0.81 0.62 0.81 1.10 1.31 1.56 1.97 2.34 2.68 3.33 3.98 4.78 5.38 5.90 5.70 5.07 4.86 4.62 3.96 3.24 2.63 2.23 1.95 1.85 1.70 1.61 1.53 1.44 1.35 1.32 1.42 1.53 1.60 1.35 1.35 1.41 1.29 1.67 1.90 2.15 2.27
0.11 0.14 0.21 0.30 0.21 0.21 0.29 0.49 0.77 0.81 1.00 1.23 1.34 1.48 1.75 1.94 2.27 2.79 3.30 3.75 4.35 4.84 4.74 4.69 4.79 4.33 3.72 3.08 2.60 2.32 2.06 1.78 1.61 1.57 1.56 1.46 1.42 1.42 1.57 1.43 1.41 1.27 1.45 1.60 1.66 1.92 1.85 1.78 1.87
0.08 0.11 0.18 0.24 0.21 0.27 0.40 0.52 0.75 0.91 1.14 1.33 1.32 1.28 1.34 1.55 1.86 2.17 2.55 2.90 3.12 3.28 3.38 3.69 3.91 3.63 3.16 2.74 2.24 2.05 2.00 1.80 1.59 1.46 1.34 1.42 1.39 1.56 1.73 1.48 1.74 1.54 1.50 1.56 1.58 1.71 1.71 1.55 1.52
0.08 0.10 0.18 0.23 0.19 0.24 0.38 0.66 0.84 0.92 0.95 1.03 1.13 1.08 1.10 1.31 1.41 1.50 1.73 2.07 2.16 2.37 2.68 3.05 3.31 3.15 2.62 2.39 2.19 2.05 1.99 1.84 1.79 1.65 1.56 1.39 1.36 1.45 1.41 1.68 1.56 1.57 1.65 1.66 1.74 1.84 1.84 1.65 1.59
0.08 0.09 0.12 0.16 0.16 0.25 0.40 0.91 1.02 0.90 0.81 0.72 0.83 0.89 0.86 0.95 1.06 1.06 1.16 1.33 1.64 2.13 2.29 2.32 2.57 2.77 2.51 2.39 2.31 2.19 2.10 1.91 1.96 1.87 1.71 1.38 1.25 1.30 1.37 1.41 1.46 1.67 1.50 1.75 1.93 1.86 1.92 1.91 1.74
0.07 0.07 0.07 0.09 0.13 0.37 0.48 0.94 1.05 0.92 0.90 0.72 0.69 0.69 0.59 0.57 0.74 0.89 0.91 0.98 1.18 1.52 1.82 2.05 2.29 2.48 2.40 2.29 2.08 1.91 1.73 1.64 1.63 1.65 1.67 1.53 1.41 1.26 1.27 1.29 1.47 1.65 1.47 1.83 1.53 1.57 1.82 1.97 1.79
0.03 0.04 0.06 0.09 0.16 0.34 0.46 0.80 1.02 0.85 0.99 0.75 0.47 0.36 0.32 0.33 0.44 0.61 0.72 0.81 0.85 1.06 1.46 1.90 2.23 2.47 2.36 2.07 1.90 1.89 1.78 1.73 1.65 1.58 1.77 1.66 1.58 1.38 1.20 1.30 1.44 1.52 1.44 1.56 1.59 1.84 1.77 1.75 1.73
0.02 0.05 0.13 0.22 0.35 0.67 0.65 0.66 0.95 0.73 0.57 0.43 0.32 0.24 0.25 0.27 0.32 0.42 0.47 0.57 0.72 0.86 1.13 1.49 1.80 2.04 2.06 1.92 1.84 1.88 1.88 1.84 1.70 1.51 1.51 1.44 1.46 1.41 1.32 1.39 1.47 1.43 1.38 1.46 1.51 1.64 1.67 1.76 1.85
0.02 0.05 0.20 0.43 0.70 0.88 0.53 0.68 1.04 0.62 0.45 0.33 0.27 0.25 0.23 0.22 0.29 0.41 0.46 0.48 0.56 0.65 0.85 1.13 1.34 1.50 1.70 1.80 1.81 1.78 1.87 1.86 1.67 1.48 1.44 1.46 1.33 1.27 1.29 1.40 1.57 1.51 1.53 1.51 1.63 1.64 1.60 1.68 1.74
0.03 0.04 0.09 0.17 0.30 0.46 0.53 1.15 1.00 0.45 0.30 0.26 0.23 0.23 0.21 0.20 0.24 0.38 0.48 0.48 0.47 0.52 0.70 0.85 1.02 1.23 1.47 1.63 1.69 1.67 1.61 1.50 1.47 1.56 1.46 1.42 1.41 1.35 1.28 1.38 1.42 1.46 1.51 1.51 1.82 1.64 1.54 1.59 1.57
0.03 0.04 0.06 0.07 0.11 0.31 0.64 0.82 0.54 0.28 0.25 0.28 0.26 0.26 0.25 0.28 0.34 0.40 0.51 0.53 0.43 0.45 0.54 0.62 0.81 1.00 1.14 1.35 1.47 1.42 1.45 1.36 1.35 1.40 1.37 1.34 1.45 1.46 1.39 1.31 1.31 1.40 1.51 1.63 1.76 1.65 1.64 1.69 1.51
0.03 0.03 0.04 0.04 0.07 0.22 0.48 0.72 0.74 0.48 0.37 0.33 0.32 0.33 0.32 0.36 0.47 0.50 0.49 0.51 0.45 0.44 0.51 0.60 0.77 0.87 0.94 1.11 1.19 1.12 1.32 1.34 1.44 1.41 1.33 1.27 1.27 1.32 1.37 1.37 1.33 1.41 1.49 1.63 1.75 1.76 1.86 1.90 1.71
0.05 0.04 0.03 0.04 0.05 0.11 0.32 0.51 0.56 0.52 0.48 0.36 0.32 0.37 0.43 0.42 0.53 0.52 0.48 0.51 0.48 0.48 0.53 0.60 0.75 0.85 0.89 1.03 1.08 1.13 1.21 1.25 1.30 1.34 1.36 1.34 1.31 1.34 1.37 1.40 1.43 1.44 1.48 1.63 1.71 1.61 1.81 1.93 1.95
0.07 0.08 0.08 0.07 0.05 0.07 0.14 0.27 0.29 0.35 0.41 0.35 0.35 0.43 0.47 0.36 0.39 0.47 0.50 0.56 0.47 0.49 0.52 0.56 0.66 0.74 0.79 0.95 1.09 1.14 1.25 1.27 1.24 1.27 1.47 1.50 1.47 1.46 1.45 1.48 1.56 1.54 1.56 1.66 1.61 1.48 1.55 1.74 1.94

GEFSSGP_prec_meanprecacc_240.txt.gz
Total_Precipitation_Accumulation
0.10 0.27 0.53 0.89 1.67 1.80 1.21 0.72 0.57 0.46 0.44 0.39 0.40 0.39 0.52 0.79 1.20 1.76 1.19 0.74 0.73 0.92 1.14 1.51 1.75 1.56 1.49 1.40 1.45 1.46 1.38 1.28 1.19 1.20 1.22 1.18 1.11 0.99 0.86 0.79 0.79 0.82 0.78 0.71 0.79 0.83 0.78 0.86 0.97
0.21 0.42 0.65 1.15 1.69 1.32 0.93 0.67 0.55 0.38 0.36 0.39 0.53 0.55 0.48 0.61 0.62 0.75 0.89 0.83 0.66 0.82 1.10 1.20 1.52 1.49 1.43 1.35 1.34 1.30 1.23 1.09 1.07 1.05 1.05 1.01 1.01 0.92 0.77 0.74 0.75 0.76 0.71 0.73 0.83 0.85 0.83 0.83 0.88
0.32 0.50 0.79 1.24 1.12 0.73 0.59 0.48 0.39 0.36 0.41 0.50 0.60 0.64 0.65 0.71 0.64 0.78 0.84 0.74 0.71 0.78 1.01 1.27 1.42 1.31 1.27 1.18 1.14 1.13 1.11 1.06 1.02 0.99 1.00 0.94 0.89 0.85 0.77 0.74 0.74 0.76 0.75 0.74 0.80 0.90 0.91 0.88 0.88
0.39 0.60 0.74 0.85 0.60 0.32 0.25 0.27 0.29 0.39 0.58 0.79 0.82 0.82 0.79 0.66 0.62 0.70 0.80 0.70 0.65 0.64 0.73 1.03 1.20 1.12 1.17 1.10 1.01 1.02 1.06 1.07 1.02 0.98 0.94 0.94 0.92 0.91 0.80 0.72 0.73 0.79 0.82 0.81 0.86 0.98 0.99 0.89 0.88
0.35 0.62 0.86 0.67 0.36 0.26 0.20 0.20 0.31 0.46 0.65 0.80 0.86 0.99 1.07 0.86 0.65 0.68 0.71 0.73 0.63 0.57 0.62 0.82 1.10 1.04 1.04 1.02 0.96 0.92 0.95 1.01 0.97 0.91 0.83 0.88 0.93 0.88 0.80 0.77 0.77 0.76 0.80 0.83 0.90 0.97 0.98 0.97 1.00
0.45 0.63 0.65 0.46 0.26 0.20 0.21 0.25 0.32 0.45 0.63 0.79 1.07 1.23 1.29 1.12 0.94 0.86 0.76 0.88 0.74 0.61 0.58 0.75 1.05 1.07 1.02 0.99 0.93 0.91 0.88 0.87 0.86 0.83 0.79 0.81 0.86 0.85 0.84 0.84 0.87 0.80 0.82 0.89 0.91 0.91 0.89 0.95 1.08
0.38 0.45 0.39 0.28 0.22 0.19 0.20 0.24 0.32 0.48 0.63 0.87 1.17 1.36 1.34 1.28 1.08 0.96 0.91 0.99 1.05 0.91 0.84 0.82 0.92 0.98 0.98 1.06 1.05 0.96 0.92 0.86 0.85 0.86 0.84 0.80 0.79 0.80 0.81 0.92 0.94 0.86 0.88 0.92 0.95 0.93 0.95 1.02 1.13
0.20 0.29 0.25 0.17 0.17 0.16 0.18 0.22 0.35 0.57 0.74 0.95 1.16 1.33 1.49 1.23 1.02 1.11 1.33 1.54 1.66 1.54 1.39 1.13 1.00 1.09 0.98 1.01 1.07 1.04 0.88 0.84 0.87 0.92 0.88 0.89 0.95 0.97 1.05 1.01 0.97 1.00 1.06 1.10 1.16 1.12 1.08 1.20 1.30
0.15 0.24 0.17 0.08 0.09 0.15 0.17 0.21 0.31 0.42 0.61 0.85 1.04 1.11 1.05 1.02 1.18 1.46 1.88 2.01 1.85 1.91 1.75 1.60 1.43 1.20 1.15 1.09 0.99 1.13 1.04 0.99 1.12 1.30 1.26 1.34 1.67 1.59 1.66 1.32 1.22 1.33 1.51 1.56 1.63 1.61 1.54 1.48 1.44
0.12 0.17 0.09 0.03 0.03 0.07 0.12 0.19 0.29 0.44 0.86 1.44 1.42 1.09 0.90 1.10 1.36 1.60 1.94 2.20 1.82 1.87 1.69 1.73 1.76 1.44 1.28 1.23 1.44 1.79 1.58 1.58 1.66 1.91 1.81 2.12 2.23 2.10 1.54 1.56 1.74 1.85 2.19 2.32 2.38 2.42 2.16 1.87 1.75
0.11 0.10 0.06 0.02 0.02 0.02 0.05 0.13 0.23 0.49 0.96 1.65 1.81 1.36 1.19 1.30 1.68 1.70 1.95 2.18 2.13 2.00 1.90 1.70 1.97 1.73 1.63 1.80 1.88 2.02 2.11 2.09 2.08 2.17 2.18 2.43 2.22 1.90 1.80 2.14 2.51 2.68 2.83 3.02 3.06 2.96 2.48 2.41 2.60
0.09 0.07 0.04 0.02 0.02 0.02 0.10 0.18 0.29 0.38 0.80 1.15 1.12 1.02 1.18 1.40 1.75 1.97 2.04 2.28 2.33 2.21 2.14 2.06 2.15 2.10 2.09 2.11 2.05 1.90 1.73 1.76 1.93 2.12 2.11 2.32 2.42 2.42 2.40 2.59 2.71 2.94 3.32 3.70 3.62 3.56 3.27 3.21 3.01
0.06 0.09 0.08 0.05 0.04 0.05 0.11 0.16 0.28 0.44 0.55 0.67 0.65 0.84 1.27 1.55 1.95 2.29 2.65 2.87 2.93 2.87 2.74 2.74 2.85 2.67 2.48 2.42 2.10 1.69 1.60 1.54 1.62 1.77 1.90 1.93 2.26 2.55 2.59 2.45 2.49 2.45 2.67 3.12 3.67 3.60 3.77 3.70 3.32
0.06 0.06 0.08 0.07 0.05 0.06 0.11 0.16 0.32 0.54 0.53 0.63 0.80 1.03 1.42 1.87 2.25 2.51 3.26 3.67 3.91 3.84 3.67 3.47 3.54 3.12 2.80 2.57 2.20 1.91 1.64 1.68 1.65 1.59 1.61 1.84 2.10 2.37 2.34 2.30 2.50 2.54 2.47 2.63 3.08 3.25 3.63 3.60 3.22
0.10 0.12 0.11 0.10 0.07 0.07 0.13 0.31 0.47 0.59 0.79 0.82 0.99 1.20 1.53 2.12 2.59 3.06 3.59 4.34 4.78 4.95 4.57 3.98 3.71 3.40 3.13 2.88 2.42 2.03 1.82 1.59 1.69 1.74 1.67 1.75 1.86 2.05 2.04 2.14 2.16 2.23 2.14 2.21 2.42 2.65 2.91 2.88 2.74
0.14 0.23 0.29 0.16 0.10 0.10 0.17 0.57 0.73 0.63 0.93 1.25 1.19 1.45 1.85 2.37 2.85 3.52 4.21 5.05 5.59 5.76 5.18 4.45 3.75 3.76 3.62 3.33 2.68 2.18 1.91 1.80 1.74 1.70 1.58 1.50 1.56 1.55 1.66 1.71 1.68 1.71 1.58 1.69 2.02 2.10 2.33 2.57 2.65
0.13 0.21 0.27 0.25 0.15 0.13 0.22 0.64 0.81 0.63 0.82 1.10 1.31 1.56 1.97 2.34 2.68 3.33 3.98 4.79 5.39 5.91 5.72 5.10 4.91 4.67 3.99 3.27 2.67 2.26 1.97 1.87 1.73 1.66 1.57 1.48 1.39 1.37 1.49 1.63 1.68 1.42 1.42 1.48 1.36 1.75 1.97 2.22 2.34
0.12 0.14 0.21 0.30 0.21 0.21 0.30 0.49 0.77 0.82 1.02 1.26 1.37 1.49 1.75 1.94 2.28 2.79 3.31 3.75 4.35 4.85 4.75 4.70 4.81 4.37 3.76 3.13 2.64 2.36 2.09 1.80 1.62 1.59 1.59 1.48 1.45 1.45 1.62 1.49 1.47 1.33 1.53 1.69 1.74 2.01 1.94 1.88 1.96
0.09 0.11 0.18 0.24 0.21 0.27 0.40 0.53 0.76 0.92 1.15 1.34 1.37 1.30 1.36 1.57 1.87 2.17 2.55 2.90 3.12 3.28 3.38 3.69 3.92 3.66 3.19 2.78 2.29 2.10 2.05 1.84 1.62 1.47 1.35 1.43 1.40 1.58 1.77 1.54 1.80 1.60 1.57 1.63 1.65 1.80 1.80 1.65 1.61
0.08 0.10 0.18 0.23 0.19 0.24 0.38 0.66 0.84 0.93 0.95 1.04 1.15 1.10 1.13 1.37 1.43 1.51 1.73 2.07 2.16 2.38 2.68 3.06 3.32 3.17 2.64 2.42 2.23 2.10 2.04 1.88 1.81 1.67 1.60 1.41 1.39 1.47 1.43 1.73 1.60 1.62 1.74 1.75 1.80 1.91 1.93 1.74 1.66
0.08 0.10 0.12 0.17 0.17 0.26 0.40 0.92 1.03 0.91 0.82 0.73 0.85 0.92 0.88 0.98 1.09 1.08 1.17 1.33 1.65 2.13 2.29 2.32 2.57 2.78 2.52 2.41 2.33 2.22 2.15 1.96 1.99 1.91 1.76 1.42 1.28 1.31 1.39 1.44 1.49 1.70 1.54 1.81 2.00 1.92 2.01 2.01 1.82
0.07 0.07 0.08 0.10 0.14 0.40 0.50 0.95 1.06 0.93 0.91 0.73 0.70 0.70 0.60 0.58 0.75 0.91 0.92 0.98 1.19 1.53 1.82 2.05 2.30 2.48 2.42 2.30 2.11 1.94 1.76 1.67 1.66 1.68 1.70 1.56 1.44 1.28 1.30 1.32 1.51 1.69 1.51 1.89 1.58 1.64 1.90 2.05 1.88
0.03 0.04 0.06 0.10 0.18 0.38 0.48 0.81 1.04 0.86 0.99 0.77 0.49 0.37 0.33 0.34 0.45 0.62 0.73 0.82 0.86 1.07 1.47 1.90 2.24 2.48 2.38 2.09 1.92 1.92 1.80 1.76 1.67 1.61 1.80 1.69 1.61 1.41 1.23 1.33 1.48 1.57 1.49 1.61 1.64 1.92 1.85 1.82 1.81
0.02 0.05 0.13 0.23 0.38 0.73 0.69 0.68 0.98 0.76 0.57 0.43 0.33 0.25 0.25 0.28 0.32 0.42 0.47 0.58 0.73 0.87 1.14 1.50 1.81 2.05 2.08 1.94 1.86 1.90 1.91 1.87 1.74 1.56 1.56 1.47 1.48 1.44 1.34 1.42 1.52 1.48 1.43 1.53 1.57 1.70 1.72 1.82 1.91
0.02 0.05 0.22 0.45 0.72 0.90 0.55 0.71 1.06 0.64 0.46 0.34 0.28 0.26 0.24 0.22 0.29 0.41 0.46 0.48 0.57 0.66 0.86 1.14 1.35 1.51 1.72 1.82 1.82 1.79 1.90 1.89 1.69 1.50 1.46 1.48 1.35 1.29 1.32 1.44 1.64 1.57 1.58 1.58 1.70 1.70 1.66 1.74 1.79
0.03 0.04 0.10 0.18 0.32 0.48 0.55 1.17 1.02 0.47 0.32 0.27 0.23 0.24 0.21 0.20 0.24 0.39 0.48 0.48 0.48 0.52 0.70 0.86 1.03 1.24 1.48 1.64 1.71 1.69 1.63 1.52 1.49 1.59 1.48 1.44 1.43 1.37 1.30 1.41 1.46 1.49 1.56 1.56 1.88 1.69 1.59 1.64 1.62
0.03 0.04 0.06 0.07 0.11 0.31 0.65 0.84 0.58 0.30 0.27 0.30 0.26 0.27 0.25 0.28 0.34 0.41 0.51 0.53 0.43 0.45 0.55 0.63 0.82 1.01 1.15 1.36 1.49 1.44 1.47 1.39 1.38 1.44 1.40 1.36 1.47 1.48 1.41 1.34 1.35 1.42 1.54 1.68 1.81 1.70 1.69 1.75 1.56
0.03 0.03 0.04 0.04 0.08 0.23 0.49 0.74 0.77 0.50 0.38 0.33 0.32 0.34 0.33 0.36 0.47 0.50 0.49 0.51 0.45 0.44 0.52 0.61 0.78 0.89 0.96 1.13 1.22 1.15 1.35 1.39 1.49 1.45 1.37 1.31 1.31 1.35 1.41 1.41 1.37 1.45 1.53 1.67 1.79 1.81 1.90 1.94 1.77
0.05 0.04 0.03 0.04 0.05 0.12 0.33 0.52 0.57 0.53 0.48 0.36 0.32 0.38 0.44 0.43 0.53 0.53 0.48 0.51 0.48 0.48 0.53 0.60 0.76 0.86 0.91 1.05 1.10 1.15 1.24 1.29 1.35 1.38 1.40 1.38 1.35 1.37 1.40 1.44 1.47 1.48 1.52 1.67 1.76 1.65 1.85 1.97 2.01
0.07 0.08 0.08 0.07 0.06 0.07 0.15 0.28 0.30 0.35 0.42 0.36 0.35 0.43 0.48 0.37 0.39 0.47 0.50 0.57 0.48 0.49 0.52 0.56 0.66 0.74 0.80 0.97 1.11 1.16 1.28 1.31 1.27 1.31 1.51 1.55 1.51 1.48 1.47 1.51 1.60 1.58 1.60 1.70 1.65 1.52 1.61 1.80 2.01

GEFSSGP_prec_meanprecacc_246.txt.gz
Total_Precipitation_Accumulation
0.11 0.30 0.58 0.95 1.72 1.87 1.26 0.74 0.58 0.46 0.45 0.42 0.41 0.42 0.55 0.83 1.25 1.83 1.28 0.82 0.82 1.00 1.20 1.58 1.81 1.61 1.54 1.46 1.53 1.58 1.49 1.36 1.28 1.29 1.30 1.25 1.17 1.02 0.88 0.81 0.80 0.83 0.79 0.71 0.80 0.84 0.78 0.86 0.97
0.24 0.46 0.70 1.21 1.77 1.37 0.97 0.68 0.56 0.38 0.37 0.40 0.55 0.58 0.51 0.66 0.67 0.83 1.00 0.91 0.74 0.91 1.18 1.29 1.60 1.53 1.48 1.42 1.45 1.42 1.36 1.22 1.18 1.14 1.11 1.08 1.07 0.96 0.79 0.75 0.76 0.77 0.72 0.74 0.85 0.86 0.84 0.84 0.90
0.37 0.54 0.84 1.32 1.20 0.75 0.61 0.49 0.39 0.36 0.42 0.51 0.62 0.66 0.68 0.77 0.70 0.89 1.02 0.82 0.76 0.87 1.13 1.39 1.51 1.37 1.34 1.27 1.24 1.24 1.23 1.18 1.13 1.07 1.06 0.99 0.95 0.90 0.80 0.76 0.75 0.77 0.77 0.75 0.81 0.91 0.92 0.89 0.89
0.45 0.67 0.84 0.94 0.63 0.33 0.26 0.27 0.29 0.40 0.58 0.79 0.83 0.86 0.81 0.73 0.72 0.85 0.96 0.76 0.69 0.69 0.80 1.11 1.26 1.18 1.23 1.18 1.07 1.09 1.16 1.20 1.14 1.06 0.99 0.98 0.98 0.96 0.84 0.75 0.74 0.80 0.83 0.82 0.86 0.99 1.00 0.90 0.90
0.43 0.74 0.99 0.75 0.38 0.27 0.21 0.21 0.31 0.46 0.65 0.81 0.89 1.05 1.14 0.96 0.79 0.84 0.82 0.76 0.65 0.61 0.66 0.87 1.15 1.08 1.08 1.07 1.01 1.01 1.11 1.18 1.06 0.97 0.88 0.92 0.97 0.91 0.82 0.79 0.77 0.77 0.81 0.84 0.91 0.98 0.99 0.98 1.02
0.53 0.82 0.81 0.54 0.29 0.20 0.22 0.25 0.32 0.45 0.63 0.80 1.10 1.29 1.40 1.27 1.12 1.00 0.83 0.92 0.79 0.65 0.62 0.78 1.10 1.11 1.06 1.05 1.02 1.06 1.09 1.02 0.95 0.89 0.84 0.86 0.90 0.87 0.85 0.86 0.87 0.80 0.83 0.89 0.91 0.91 0.90 0.96 1.09
0.47 0.60 0.49 0.33 0.25 0.20 0.21 0.25 0.32 0.48 0.63 0.87 1.19 1.40 1.43 1.44 1.29 1.10 0.98 1.03 1.10 0.95 0.87 0.85 0.95 1.03 1.03 1.14 1.18 1.14 1.07 0.95 0.92 0.91 0.89 0.85 0.82 0.82 0.82 0.92 0.95 0.87 0.88 0.92 0.95 0.94 0.96 1.03 1.14
0.29 0.41 0.32 0.21 0.23 0.23 0.20 0.23 0.35 0.58 0.74 0.96 1.17 1.36 1.57 1.36 1.20 1.25 1.42 1.60 1.72 1.60 1.44 1.20 1.05 1.14 1.03 1.06 1.13 1.13 0.96 0.90 0.91 0.97 0.93 0.93 0.98 0.99 1.05 1.02 0.99 1.00 1.07 1.11 1.17 1.12 1.09 1.21 1.31
0.23 0.37 0.25 0.12 0.13 0.20 0.19 0.23 0.32 0.42 0.62 0.86 1.06 1.16 1.10 1.09 1.26 1.54 1.94 2.07 1.92 1.98 1.81 1.66 1.48 1.26 1.21 1.14 1.04 1.20 1.11 1.04 1.16 1.34 1.31 1.36 1.69 1.60 1.67 1.33 1.25 1.35 1.52 1.57 1.64 1.64 1.56 1.50 1.45
0.20 0.26 0.14 0.05 0.04 0.08 0.14 0.21 0.31 0.44 0.86 1.44 1.44 1.13 0.93 1.13 1.41 1.64 1.99 2.26 1.88 1.93 1.77 1.79 1.80 1.49 1.31 1.26 1.49 1.86 1.65 1.62 1.68 1.93 1.83 2.13 2.24 2.12 1.56 1.58 1.77 1.88 2.21 2.34 2.40 2.47 2.19 1.89 1.77
0.16 0.14 0.08 0.03 0.03 0.03 0.06 0.14 0.24 0.49 0.96 1.65 1.83 1.39 1.21 1.33 1.71 1.73 1.98 2.21 2.15 2.04 1.96 1.77 2.03 1.77 1.66 1.82 1.92 2.08 2.17 2.13 2.11 2.19 2.19 2.44 2.23 1.92 1.82 2.15 2.52 2.70 2.85 3.03 3.08 2.99 2.52 2.46 2.64
0.09 0.07 0.04 0.03 0.02 0.03 0.11 0.19 0.29 0.38 0.80 1.15 1.13 1.04 1.20 1.41 1.77 1.99 2.05 2.29 2.35 2.23 2.18 2.12 2.19 2.14 2.11 2.14 2.09 1.94 1.77 1.82 1.99 2.17 2.14 2.34 2.44 2.45 2.42 2.60 2.72 2.95 3.33 3.71 3.63 3.59 3.31 3.25 3.04
0.07 0.09 0.08 0.05 0.05 0.06 0.12 0.16 0.29 0.45 0.56 0.68 0.65 0.86 1.29 1.56 1.95 2.30 2.66 2.88 2.94 2.88 2.75 2.76 2.87 2.71 2.50 2.45 2.14 1.74 1.64 1.58 1.67 1.79 1.93 1.94 2.28 2.58 2.61 2.47 2.51 2.47 2.70 3.14 3.69 3.61 3.79 3.72 3.34
0.06 0.06 0.08 0.07 0.06 0.07 0.11 0.17 0.32 0.54 0.54 0.64 0.80 1.04 1.43 1.87 2.25 2.51 3.27 3.67 3.91 3.84 3.68 3.48 3.55 3.14 2.81 2.58 2.22 1.96 1.69 1.72 1.69 1.62 1.63 1.85 2.12 2.38 2.35 2.32 2.52 2.57 2.50 2.65 3.09 3.26 3.64 3.62 3.24
0.11 0.13 0.12 0.10 0.07 0.08 0.13 0.33 0.48 0.60 0.80 0.83 1.00 1.20 1.53 2.12 2.60 3.06 3.60 4.35 4.78 4.96 4.57 3.98 3.71 3.41 3.15 2.89 2.43 2.05 1.86 1.63 1.75 1.80 1.74 1.80 1.91 2.08 2.06 2.15 2.17 2.25 2.16 2.23 2.45 2.67 2.94 2.91 2.76
0.14 0.24 0.30 0.16 0.11 0.11 0.18 0.58 0.74 0.63 0.95 1.27 1.20 1.45 1.85 2.37 2.85 3.53 4.21 5.05 5.59 5.76 5.18 4.46 3.75 3.77 3.63 3.34 2.69 2.19 1.93 1.83 1.78 1.75 1.63 1.53 1.61 1.62 1.71 1.74 1.70 1.72 1.58 1.71 2.04 2.13 2.39 2.61 2.67
0.15 0.22 0.29 0.26 0.15 0.14 0.23 0.65 0.82 0.64 0.85 1.15 1.33 1.57 1.99 2.35 2.69 3.34 3.99 4.79 5.39 5.91 5.72 5.10 4.92 4.68 4.00 3.28 2.67 2.27 1.97 1.88 1.75 1.68 1.58 1.49 1.41 1.40 1.54 1.65 1.70 1.43 1.43 1.50 1.39 1.78 2.02 2.28 2.38
0.13 0.15 0.22 0.31 0.22 0.22 0.30 0.50 0.78 0.83 1.03 1.31 1.41 1.52 1.78 1.97 2.30 2.81 3.32 3.76 4.35 4.85 4.75 4.70 4.82 4.38 3.77 3.13 2.66 2.38 2.10 1.80 1.63 1.60 1.60 1.49 1.45 1.46 1.64 1.50 1.48 1.34 1.55 1.72 1.78 2.05 1.98 1.93 2.01
0.09 0.12 0.19 0.26 0.22 0.28 0.41 0.54 0.77 0.93 1.17 1.38 1.41 1.35 1.40 1.62 1.90 2.20 2.57 2.91 3.13 3.29 3.39 3.70 3.93 3.67 3.20 2.79 2.30 2.11 2.06 1.86 1.63 1.49 1.37 1.45 1.41 1.59 1.78 1.55 1.81 1.60 1.58 1.65 1.68 1.82 1.83 1.69 1.65
0.09 0.11 0.19 0.24 0.20 0.25 0.40 0.68 0.86 0.95 0.98 1.10 1.22 1.14 1.18 1.44 1.49 1.58 1.77 2.09 2.18 2.41 2.72 3.09 3.33 3.18 2.65 2.43 2.23 2.10 2.04 1.89 1.83 1.68 1.60 1.42 1.40 1.49 1.44 1.73 1.61 1.62 1.74 1.76 1.82 1.94 1.95 1.75 1.69
0.09 0.10 0.13 0.18 0.18 0.27 0.42 0.94 1.06 0.94 0.85 0.78 0.92 0.98 0.94 1.08 1.21 1.25 1.23 1.39 1.71 2.23 2.42 2.36 2.60 2.79 2.53 2.42 2.34 2.23 2.16 1.96 2.00 1.92 1.78 1.43 1.29 1.32 1.40 1.45 1.49 1.71 1.55 1.82 2.01 1.95 2.03 2.03 1.86
0.08 0.08 0.08 0.10 0.15 0.41 0.52 0.99 1.09 0.95 0.94 0.76 0.73 0.77 0.71 0.66 0.82 0.98 0.97 1.06 1.25 1.58 1.86 2.08 2.32 2.49 2.43 2.32 2.11 1.95 1.77 1.67 1.67 1.70 1.71 1.57 1.45 1.30 1.31 1.33 1.52 1.70 1.53 1.91 1.60 1.69 1.94 2.09 1.92
0.04 0.04 0.06 0.10 0.18 0.38 0.51 0.87 1.07 0.89 1.02 0.79 0.52 0.41 0.37 0.37 0.48 0.66 0.77 0.86 0.89 1.09 1.49 1.92 2.26 2.50 2.39 2.09 1.92 1.92 1.81 1.77 1.69 1.62 1.82 1.71 1.62 1.43 1.24 1.35 1.52 1.60 1.52 1.64 1.69 1.98 1.90 1.86 1.84
0.03 0.05 0.13 0.23 0.38 0.74 0.71 0.74 1.01 0.78 0.59 0.46 0.35 0.27 0.27 0.30 0.35 0.45 0.53 0.65 0.77 0.90 1.16 1.52 1.82 2.07 2.09 1.95 1.86 1.90 1.92 1.88 1.75 1.57 1.57 1.49 1.49 1.45 1.36 1.43 1.54 1.52 1.47 1.57 1.62 1.77 1.77 1.86 1.94
0.03 0.05 0.22 0.46 0.73 0.91 0.58 0.75 1.09 0.66 0.48 0.37 0.31 0.27 0.25 0.23 0.30 0.42 0.49 0.58 0.65 0.70 0.88 1.16 1.36 1.52 1.73 1.83 1.83 1.80 1.90 1.90 1.70 1.51 1.47 1.49 1.36 1.31 1.34 1.46 1.67 1.60 1.61 1.62 1.75 1.75 1.70 1.78 1.83
0.03 0.04 0.10 0.19 0.33 0.51 0.58 1.19 1.04 0.49 0.34 0.29 0.25 0.25 0.22 0.21 0.25 0.39 0.49 0.52 0.52 0.54 0.71 0.88 1.05 1.26 1.50 1.65 1.71 1.69 1.64 1.52 1.49 1.60 1.49 1.45 1.44 1.39 1.32 1.44 1.49 1.53 1.60 1.61 1.94 1.74 1.62 1.68 1.65
0.03 0.04 0.06 0.08 0.12 0.34 0.67 0.85 0.58 0.31 0.29 0.31 0.28 0.28 0.26 0.29 0.36 0.41 0.52 0.54 0.44 0.46 0.56 0.64 0.84 1.03 1.17 1.38 1.50 1.44 1.48 1.39 1.39 1.46 1.43 1.38 1.49 1.49 1.43 1.37 1.38 1.47 1.61 1.75 1.88 1.76 1.75 1.79 1.60
0.03 0.03 0.04 0.04 0.08 0.24 0.51 0.75 0.78 0.51 0.39 0.34 0.34 0.35 0.34 0.37 0.48 0.51 0.50 0.53 0.46 0.45 0.55 0.64 0.80 0.91 0.98 1.15 1.23 1.16 1.36 1.41 1.52 1.49 1.40 1.34 1.34 1.38 1.44 1.44 1.41 1.49 1.58 1.73 1.86 1.86 1.95 1.99 1.81
0.05 0.04 0.03 0.04 0.05 0.12 0.36 0.54 0.58 0.54 0.49 0.37 0.33 0.39 0.46 0.45 0.55 0.54 0.50 0.53 0.50 0.50 0.56 0.62 0.78 0.88 0.93 1.07 1.12 1.18 1.26 1.33 1.40 1.43 1.43 1.42 1.39 1.40 1.43 1.47 1.51 1.51 1.55 1.71 1.81 1.72 1.92 2.03 2.07
0.07 0.08 0.08 0.07 0.06 0.07 0.16 0.30 0.32 0.36 0.43 0.37 0.37 0.46 0.51 0.38 0.41 0.49 0.52 0.59 0.51 0.52 0.55 0.60 0.71 0.80 0.87 1.04 1.18 1.22 1.33 1.36 1.34 1.36 1.56 1.59 1.56 1.53 1.52 1.55 1.64 1.62 1.64 1.74 1.70 1.59 1.68 1.87 2.06

GEFSSGP_prec_meanprecacc_252.txt.gz
Total_Precipitation_Accumulation
0.11 0.31 0.60 0.96 1.74 1.88 1.27 0.76 0.59 0.48 0.47 0.43 0.43 0.44 0.58 0.87 1.28 1.85 1.31 0.89 0.92 1.07 1.30 1.69 1.89 1.68 1.61 1.53 1.62 1.65 1.55 1.42 1.34 1.35 1.35 1.30 1.22 1.06 0.91 0.83 0.82 0.84 0.80 0.73 0.82 0.85 0.79 0.87 0.99
0.25 0.47 0.70 1.22 1.78 1.38 0.98 0.69 0.57 0.39 0.38 0.42 0.56 0.61 0.56 0.70 0.69 0.85 1.04 0.99 0.81 0.96 1.24 1.36 1.67 1.60 1.54 1.47 1.53 1.50 1.42 1.27 1.26 1.21 1.17 1.13 1.12 0.99 0.81 0.76 0.77 0.79 0.75 0.76 0.87 0.88 0.85 0.85 0.93
0.38 0.55 0.85 1.33 1.21 0.75 0.61 0.49 0.40 0.37 0.43 0.52 0.63 0.69 0.70 0.80 0.73 0.91 1.06 0.89 0.83 0.92 1.19 1.48 1.59 1.43 1.40 1.33 1.33 1.30 1.29 1.25 1.21 1.14 1.12 1.04 0.99 0.93 0.81 0.77 0.77 0.79 0.79 0.78 0.83 0.92 0.92 0.90 0.92
0.46 0.68 0.84 0.94 0.63 0.34 0.26 0.28 0.30 0.41 0.59 0.80 0.84 0.88 0.86 0.78 0.79 0.92 1.03 0.83 0.78 0.77 0.88 1.22 1.36 1.25 1.30 1.23 1.15 1.18 1.24 1.28 1.21 1.11 1.04 1.02 1.01 0.98 0.85 0.76 0.76 0.82 0.84 0.83 0.87 1.00 1.01 0.92 0.92
0.44 0.75 1.00 0.75 0.38 0.27 0.21 0.22 0.32 0.47 0.66 0.82 0.90 1.09 1.23 1.04 0.88 0.95 0.89 0.80 0.71 0.70 0.77 0.99 1.25 1.16 1.16 1.14 1.10 1.12 1.20 1.26 1.13 1.02 0.92 0.96 1.00 0.93 0.83 0.80 0.79 0.79 0.82 0.85 0.93 1.00 1.00 0.99 1.04
0.55 0.83 0.81 0.55 0.30 0.22 0.23 0.26 0.32 0.45 0.63 0.81 1.14 1.35 1.49 1.36 1.19 1.06 0.90 0.97 0.84 0.70 0.70 0.89 1.19 1.18 1.15 1.14 1.14 1.20 1.22 1.12 1.02 0.95 0.89 0.89 0.91 0.89 0.86 0.87 0.89 0.82 0.84 0.91 0.95 0.96 0.92 0.98 1.11
0.48 0.62 0.50 0.35 0.28 0.22 0.22 0.25 0.33 0.48 0.64 0.89 1.23 1.47 1.51 1.50 1.34 1.16 1.04 1.11 1.16 0.99 0.93 0.93 1.01 1.08 1.11 1.26 1.33 1.35 1.27 1.06 0.99 0.97 0.93 0.87 0.84 0.83 0.83 0.94 0.96 0.89 0.89 0.95 0.99 0.98 1.00 1.07 1.16
0.30 0.42 0.33 0.22 0.25 0.24 0.21 0.24 0.36 0.58 0.75 0.97 1.20 1.42 1.64 1.43 1.24 1.29 1.49 1.68 1.80 1.67 1.52 1.28 1.13 1.20 1.10 1.15 1.33 1.44 1.18 1.00 0.98 1.02 0.98 0.96 1.01 1.00 1.08 1.05 1.01 1.04 1.09 1.13 1.21 1.15 1.12 1.24 1.33
0.24 0.38 0.27 0.12 0.15 0.21 0.20 0.24 0.33 0.42 0.62 0.87 1.09 1.21 1.19 1.17 1.31 1.57 2.00 2.14 2.00 2.06 1.88 1.71 1.54 1.34 1.30 1.23 1.24 1.51 1.30 1.14 1.23 1.40 1.35 1.40 1.71 1.63 1.71 1.39 1.30 1.40 1.56 1.61 1.67 1.66 1.59 1.53 1.48
0.20 0.27 0.15 0.07 0.04 0.08 0.15 0.23 0.32 0.44 0.87 1.47 1.47 1.19 1.02 1.21 1.46 1.68 2.03 2.33 1.99 2.06 1.84 1.84 1.84 1.54 1.38 1.36 1.65 2.08 1.78 1.70 1.75 1.97 1.85 2.15 2.27 2.15 1.60 1.63 1.84 1.95 2.28 2.40 2.46 2.51 2.24 1.93 1.78
0.16 0.14 0.09 0.04 0.03 0.03 0.07 0.15 0.25 0.49 0.97 1.68 1.86 1.44 1.27 1.38 1.76 1.77 2.02 2.25 2.23 2.15 2.05 1.83 2.07 1.80 1.70 1.87 2.01 2.19 2.25 2.18 2.14 2.21 2.20 2.45 2.25 1.95 1.86 2.18 2.56 2.74 2.90 3.06 3.10 3.02 2.55 2.48 2.66
0.10 0.07 0.04 0.03 0.02 0.03 0.11 0.20 0.30 0.39 0.81 1.16 1.16 1.06 1.23 1.45 1.81 2.03 2.08 2.31 2.36 2.25 2.20 2.15 2.23 2.18 2.15 2.17 2.14 2.03 1.84 1.86 2.01 2.17 2.15 2.35 2.45 2.47 2.44 2.62 2.74 2.97 3.34 3.72 3.64 3.60 3.32 3.26 3.06
0.07 0.09 0.09 0.05 0.05 0.06 0.12 0.17 0.29 0.45 0.56 0.69 0.66 0.87 1.31 1.59 1.98 2.32 2.67 2.89 2.94 2.89 2.77 2.78 2.90 2.75 2.54 2.47 2.18 1.80 1.71 1.62 1.69 1.80 1.94 1.95 2.29 2.59 2.63 2.48 2.52 2.48 2.71 3.15 3.70 3.62 3.80 3.74 3.37
0.06 0.06 0.08 0.07 0.06 0.07 0.12 0.17 0.32 0.54 0.55 0.65 0.81 1.05 1.44 1.89 2.26 2.52 3.28 3.68 3.91 3.85 3.69 3.50 3.58 3.16 2.84 2.60 2.24 1.99 1.76 1.80 1.73 1.65 1.66 1.86 2.12 2.39 2.36 2.33 2.53 2.58 2.51 2.67 3.11 3.28 3.66 3.64 3.26
0.11 0.13 0.12 0.10 0.07 0.08 0.14 0.33 0.48 0.61 0.80 0.83 1.00 1.21 1.54 2.13 2.60 3.06 3.60 4.35 4.79 4.96 4.58 4.00 3.74 3.43 3.17 2.91 2.44 2.07 1.89 1.70 1.81 1.85 1.77 1.82 1.92 2.09 2.06 2.16 2.18 2.26 2.17 2.25 2.47 2.70 2.96 2.93 2.79
0.14 0.24 0.30 0.17 0.11 0.11 0.18 0.59 0.74 0.64 0.95 1.28 1.20 1.46 1.85 2.38 2.86 3.53 4.22 5.05 5.59 5.77 5.18 4.47 3.77 3.78 3.64 3.35 2.69 2.21 1.95 1.87 1.84 1.79 1.65 1.55 1.62 1.63 1.71 1.74 1.70 1.72 1.60 1.73 2.07 2.15 2.42 2.64 2.69
0.15 0.23 0.29 0.26 0.15 0.14 0.23 0.65 0.82 0.64 0.85 1.15 1.34 1.57 1.99 2.36 2.70 3.34 3.99 4.79 5.39 5.91 5.73 5.10 4.92 4.69 4.02 3.30 2.69 2.28 1.99 1.91 1.78 1.68 1.59 1.50 1.43 1.41 1.55 1.66 1.70 1.44 1.44 1.53 1.42 1.82 2.06 2.32 2.41
0.13 0.15 0.23 0.32 0.22 0.22 0.30 0.50 0.79 0.84 1.04 1.32 1.42 1.53 1.79 1.98 2.30 2.81 3.32 3.76 4.35 4.86 4.76 4.71 4.82 4.40 3.80 3.16 2.68 2.40 2.12 1.83 1.64 1.61 1.61 1.50 1.46 1.47 1.64 1.50 1.48 1.35 1.56 1.75 1.83 2.11 2.05 2.00 2.06
0.10 0.12 0.19 0.26 0.22 0.28 0.41 0.54 0.78 0.94 1.18 1.40 1.42 1.36 1.41 1.63 1.91 2.20 2.58 2.93 3.14 3.30 3.40 3.71 3.94 3.69 3.23 2.81 2.32 2.14 2.08 1.88 1.65 1.49 1.38 1.46 1.42 1.60 1.79 1.56 1.82 1.61 1.60 1.69 1.72 1.87 1.86 1.71 1.67
0.09 0.11 0.19 0.24 0.20 0.25 0.40 0.69 0.87 0.95 0.99 1.11 1.23 1.15 1.20 1.45 1.50 1.59 1.78 2.12 2.25 2.44 2.75 3.11 3.36 3.20 2.67 2.45 2.26 2.12 2.06 1.92 1.86 1.70 1.61 1.43 1.41 1.51 1.46 1.75 1.62 1.64 1.76 1.79 1.85 1.97 1.98 1.77 1.72
0.09 0.10 0.13 0.18 0.19 0.29 0.43 0.95 1.06 0.95 0.86 0.79 0.94 0.99 0.95 1.09 1.22 1.27 1.26 1.43 1.77 2.27 2.43 2.37 2.61 2.80 2.55 2.44 2.36 2.26 2.18 1.97 2.02 1.94 1.78 1.44 1.30 1.34 1.41 1.46 1.51 1.73 1.57 1.84 2.04 1.99 2.05 2.05 1.89
0.08 0.08 0.08 0.10 0.15 0.42 0.53 1.00 1.10 0.96 0.95 0.77 0.75 0.78 0.72 0.68 0.83 1.00 0.99 1.10 1.32 1.60 1.87 2.08 2.33 2.51 2.44 2.33 2.13 1.96 1.78 1.69 1.69 1.72 1.72 1.58 1.46 1.31 1.32 1.34 1.54 1.73 1.56 1.96 1.65 1.74 1.98 2.11 1.95
0.04 0.04 0.06 0.11 0.19 0.39 0.51 0.88 1.08 0.89 1.02 0.80 0.53 0.42 0.38 0.38 0.48 0.67 0.78 0.89 0.94 1.13 1.52 1.94 2.28 2.52 2.40 2.10 1.93 1.93 1.82 1.78 1.70 1.64 1.83 1.72 1.63 1.43 1.25 1.35 1.53 1.61 1.55 1.69 1.75 2.03 1.94 1.88 1.87
0.03 0.05 0.13 0.23 0.39 0.74 0.71 0.75 1.02 0.79 0.60 0.46 0.36 0.28 0.27 0.30 0.35 0.46 0.54 0.67 0.79 0.93 1.19 1.55 1.86 2.09 2.10 1.96 1.87 1.91 1.93 1.89 1.76 1.57 1.59 1.50 1.51 1.46 1.36 1.44 1.55 1.54 1.49 1.60 1.67 1.84 1.83 1.91 1.98
0.03 0.05 0.22 0.46 0.73 0.91 0.58 0.75 1.09 0.66 0.48 0.37 0.32 0.27 0.25 0.23 0.31 0.43 0.51 0.60 0.67 0.71 0.90 1.19 1.39 1.54 1.74 1.85 1.84 1.80 1.91 1.91 1.71 1.52 1.49 1.50 1.37 1.32 1.35 1.47 1.68 1.62 1.63 1.65 1.81 1.82 1.76 1.84 1.88
0.03 0.04 0.10 0.19 0.33 0.51 0.58 1.19 1.04 0.49 0.34 0.29 0.26 0.26 0.22 0.22 0.26 0.40 0.50 0.54 0.55 0.56 0.73 0.89 1.07 1.28 1.52 1.67 1.73 1.71 1.65 1.54 1.51 1.60 1.51 1.46 1.44 1.40 1.34 1.46 1.51 1.54 1.62 1.64 1.99 1.79 1.67 1.73 1.70
0.03 0.04 0.06 0.08 0.12 0.34 0.67 0.85 0.59 0.32 0.29 0.31 0.28 0.28 0.27 0.29 0.36 0.42 0.53 0.55 0.47 0.49 0.59 0.66 0.85 1.05 1.19 1.40 1.52 1.46 1.49 1.39 1.40 1.47 1.43 1.39 1.51 1.51 1.46 1.39 1.41 1.49 1.63 1.78 1.92 1.80 1.79 1.82 1.63
0.03 0.03 0.04 0.04 0.08 0.24 0.51 0.75 0.78 0.51 0.39 0.34 0.34 0.35 0.34 0.38 0.48 0.52 0.51 0.54 0.48 0.47 0.57 0.65 0.81 0.93 1.00 1.17 1.25 1.17 1.37 1.42 1.54 1.50 1.41 1.35 1.35 1.40 1.46 1.47 1.44 1.53 1.61 1.77 1.90 1.90 1.99 2.02 1.84
0.05 0.04 0.03 0.04 0.05 0.12 0.36 0.54 0.58 0.54 0.49 0.37 0.33 0.39 0.46 0.45 0.56 0.55 0.51 0.54 0.52 0.53 0.59 0.65 0.79 0.89 0.95 1.09 1.15 1.20 1.29 1.36 1.43 1.45 1.46 1.44 1.41 1.43 1.45 1.50 1.54 1.56 1.61 1.77 1.87 1.77 1.97 2.08 2.11
0.07 0.08 0.08 0.07 0.06 0.08 0.16 0.31 0.32 0.37 0.43 0.37 0.37 0.46 0.51 0.39 0.42 0.50 0.53 0.60 0.52 0.55 0.59 0.63 0.72 0.81 0.88 1.07 1.22 1.27 1.39 1.44 1.39 1.40 1.59 1.63 1.59 1.56 1.55 1.59 1.69 1.67 1.70 1.80 1.77 1.64 1.72 1.90 2.08

GEFSSGP_prec_meanprecacc_258.txt.gz
Total_Precipitation_Accumulation
0.11 0.31 0.60 0.97 1.75 1.90 1.30 0.78 0.59 0.50 0.50 0.46 0.44 0.44 0.59 0.91 1.31 1.91 1.36 0.95 1.04 1.22 1.45 1.83 2.01 1.81 1.71 1.61 1.71 1.76 1.65 1.52 1.43 1.41 1.39 1.33 1.25 1.10 0.94 0.86 0.86 0.90 0.86 0.76 0.84 0.87 0.82 0.90 1.01
0.26 0.48 0.71 1.22 1.79 1.39 0.99 0.71 0.58 0.41 0.39 0.44 0.57 0.63 0.58 0.72 0.70 0.87 1.10 1.08 0.92 1.08 1.37 1.45 1.77 1.70 1.62 1.55 1.61 1.59 1.50 1.34 1.32 1.26 1.21 1.16 1.16 1.04 0.85 0.79 0.81 0.84 0.80 0.79 0.88 0.90 0.87 0.87 0.96
0.38 0.55 0.85 1.33 1.21 0.76 0.62 0.50 0.41 0.38 0.43 0.54 0.66 0.71 0.73 0.82 0.75 0.96 1.13 0.97 0.93 1.02 1.28 1.55 1.68 1.53 1.47 1.40 1.41 1.40 1.38 1.32 1.28 1.19 1.16 1.07 1.03 0.97 0.84 0.79 0.80 0.82 0.83 0.80 0.85 0.95 0.95 0.93 0.96
0.47 0.68 0.84 0.95 0.64 0.34 0.26 0.28 0.30 0.41 0.59 0.80 0.86 0.91 0.88 0.80 0.83 0.99 1.09 0.90 0.86 0.85 0.98 1.31 1.45 1.35 1.38 1.30 1.23 1.28 1.33 1.36 1.28 1.16 1.08 1.05 1.04 1.02 0.88 0.78 0.78 0.85 0.88 0.88 0.90 1.02 1.04 0.95 0.95
0.44 0.75 1.00 0.76 0.39 0.28 0.22 0.22 0.32 0.47 0.67 0.82 0.91 1.11 1.26 1.07 0.91 1.00 0.93 0.88 0.80 0.80 0.89 1.12 1.37 1.28 1.26 1.22 1.19 1.24 1.31 1.34 1.20 1.08 0.98 1.00 1.03 0.96 0.85 0.82 0.82 0.81 0.85 0.90 0.97 1.03 1.03 1.01 1.06
0.55 0.83 0.82 0.56 0.31 0.22 0.23 0.26 0.32 0.45 0.64 0.82 1.15 1.37 1.53 1.40 1.22 1.11 0.95 1.07 0.95 0.81 0.82 1.04 1.33 1.30 1.24 1.23 1.24 1.31 1.34 1.22 1.09 1.00 0.93 0.93 0.95 0.93 0.89 0.90 0.90 0.83 0.86 0.95 1.00 1.01 0.96 1.00 1.14
0.49 0.63 0.50 0.35 0.28 0.22 0.22 0.26 0.33 0.49 0.65 0.92 1.26 1.49 1.54 1.53 1.38 1.21 1.12 1.21 1.28 1.10 1.06 1.07 1.14 1.19 1.24 1.39 1.46 1.47 1.38 1.15 1.06 1.02 0.96 0.90 0.87 0.87 0.87 0.96 0.98 0.90 0.92 0.99 1.06 1.04 1.04 1.09 1.20
0.31 0.43 0.34 0.22 0.26 0.25 0.21 0.24 0.36 0.58 0.78 1.01 1.23 1.43 1.66 1.47 1.29 1.37 1.62 1.79 1.90 1.77 1.64 1.42 1.27 1.35 1.26 1.33 1.50 1.57 1.30 1.08 1.04 1.06 1.02 1.00 1.04 1.03 1.11 1.08 1.05 1.09 1.16 1.20 1.28 1.23 1.19 1.28 1.36
0.24 0.39 0.28 0.13 0.15 0.21 0.20 0.24 0.33 0.42 0.65 0.91 1.13 1.25 1.23 1.21 1.36 1.66 2.11 2.22 2.10 2.19 2.02 1.80 1.63 1.46 1.44 1.40 1.43 1.67 1.43 1.22 1.30 1.46 1.41 1.45 1.76 1.67 1.74 1.42 1.36 1.48 1.66 1.71 1.75 1.74 1.64 1.56 1.50
0.20 0.28 0.15 0.07 0.04 0.08 0.15 0.23 0.32 0.45 0.89 1.51 1.52 1.22 1.04 1.25 1.53 1.79 2.12 2.41 2.11 2.24 2.00 1.92 1.90 1.61 1.49 1.56 1.92 2.30 1.92 1.79 1.83 2.05 1.92 2.22 2.32 2.21 1.63 1.67 1.91 2.04 2.37 2.50 2.53 2.56 2.27 1.95 1.81
0.16 0.14 0.09 0.04 0.03 0.03 0.07 0.16 0.25 0.50 0.99 1.73 1.91 1.49 1.30 1.40 1.78 1.80 2.06 2.29 2.31 2.27 2.17 1.92 2.16 1.86 1.79 2.06 2.22 2.39 2.40 2.28 2.23 2.28 2.27 2.52 2.30 1.99 1.89 2.22 2.61 2.81 2.95 3.12 3.16 3.07 2.58 2.51 2.70
0.10 0.08 0.04 0.03 0.02 0.03 0.11 0.20 0.30 0.40 0.85 1.21 1.19 1.10 1.26 1.48 1.83 2.04 2.10 2.34 2.42 2.30 2.25 2.23 2.34 2.29 2.30 2.34 2.29 2.20 1.98 1.95 2.08 2.25 2.22 2.42 2.51 2.52 2.48 2.66 2.79 3.03 3.40 3.77 3.69 3.65 3.36 3.30 3.08
0.07 0.09 0.09 0.05 0.05 0.06 0.12 0.17 0.29 0.45 0.58 0.71 0.69 0.90 1.34 1.61 2.00 2.34 2.69 2.91 2.97 2.91 2.80 2.83 2.98 2.85 2.68 2.62 2.31 1.95 1.82 1.70 1.75 1.87 2.00 2.00 2.35 2.64 2.67 2.53 2.58 2.52 2.75 3.21 3.76 3.67 3.84 3.78 3.39
0.06 0.06 0.08 0.07 0.06 0.07 0.12 0.17 0.32 0.55 0.56 0.66 0.83 1.09 1.47 1.91 2.28 2.54 3.29 3.70 3.93 3.87 3.72 3.54 3.63 3.21 2.90 2.66 2.31 2.07 1.83 1.87 1.79 1.71 1.70 1.91 2.18 2.44 2.41 2.38 2.59 2.63 2.56 2.72 3.16 3.32 3.71 3.68 3.29
0.11 0.13 0.12 0.10 0.07 0.08 0.14 0.33 0.48 0.61 0.80 0.84 1.02 1.24 1.56 2.15 2.61 3.08 3.62 4.36 4.79 4.97 4.61 4.04 3.78 3.47 3.20 2.93 2.46 2.09 1.94 1.78 1.93 1.92 1.81 1.85 1.95 2.15 2.13 2.23 2.23 2.31 2.21 2.29 2.51 2.73 3.00 2.97 2.83
0.14 0.24 0.30 0.17 0.11 0.11 0.18 0.59 0.74 0.64 0.96 1.29 1.22 1.48 1.87 2.39 2.87 3.55 4.23 5.06 5.60 5.78 5.20 4.50 3.79 3.81 3.68 3.40 2.73 2.22 1.97 1.91 1.90 1.85 1.68 1.56 1.65 1.66 1.76 1.80 1.76 1.77 1.64 1.77 2.11 2.20 2.47 2.69 2.74
0.15 0.23 0.30 0.26 0.15 0.14 0.23 0.65 0.83 0.64 0.86 1.16 1.35 1.59 2.00 2.37 2.71 3.35 4.00 4.80 5.40 5.92 5.73 5.12 4.95 4.72 4.05 3.35 2.74 2.30 2.02 1.97 1.80 1.71 1.61 1.51 1.45 1.44 1.60 1.72 1.77 1.48 1.48 1.58 1.46 1.86 2.12 2.37 2.46
0.13 0.15 0.23 0.32 0.22 0.22 0.30 0.50 0.79 0.84 1.05 1.32 1.43 1.54 1.79 1.99 2.32 2.82 3.33 3.77 4.36 4.86 4.76 4.72 4.85 4.43 3.83 3.20 2.73 2.44 2.15 1.85 1.67 1.64 1.64 1.53 1.49 1.50 1.69 1.55 1.52 1.37 1.60 1.82 1.90 2.19 2.13 2.08 2.15
0.10 0.12 0.19 0.26 0.22 0.28 0.41 0.54 0.78 0.95 1.19 1.40 1.43 1.36 1.42 1.63 1.92 2.21 2.58 2.93 3.14 3.30 3.40 3.72 3.95 3.71 3.25 2.84 2.37 2.18 2.12 1.92 1.68 1.53 1.41 1.50 1.45 1.64 1.83 1.61 1.88 1.66 1.64 1.75 1.80 1.95 1.92 1.78 1.74
0.09 0.11 0.19 0.24 0.20 0.25 0.41 0.69 0.87 0.96 1.00 1.12 1.24 1.16 1.20 1.46 1.51 1.61 1.79 2.12 2.25 2.45 2.75 3.11 3.36 3.21 2.69 2.47 2.29 2.16 2.10 1.94 1.89 1.74 1.65 1.46 1.44 1.54 1.49 1.81 1.68 1.69 1.82 1.85 1.93 2.05 2.04 1.83 1.77
0.09 0.10 0.13 0.18 0.19 0.29 0.43 0.95 1.06 0.95 0.87 0.79 0.94 0.99 0.96 1.10 1.23 1.29 1.27 1.44 1.77 2.27 2.43 2.37 2.61 2.81 2.55 2.45 2.38 2.28 2.20 2.00 2.06 1.98 1.83 1.47 1.32 1.35 1.43 1.49 1.55 1.77 1.61 1.89 2.12 2.06 2.13 2.12 1.94
0.08 0.08 0.08 0.10 0.15 0.42 0.54 1.00 1.10 0.96 0.95 0.77 0.75 0.79 0.73 0.68 0.83 1.00 1.00 1.11 1.32 1.61 1.87 2.09 2.33 2.51 2.45 2.34 2.14 1.99 1.81 1.72 1.73 1.75 1.74 1.60 1.47 1.32 1.33 1.36 1.58 1.77 1.59 2.02 1.72 1.82 2.05 2.19 2.02
0.04 0.04 0.06 0.11 0.19 0.39 0.51 0.88 1.08 0.89 1.02 0.80 0.53 0.42 0.39 0.38 0.48 0.67 0.78 0.89 0.95 1.13 1.52 1.95 2.28 2.52 2.41 2.11 1.95 1.96 1.85 1.81 1.73 1.66 1.85 1.73 1.64 1.45 1.26 1.37 1.56 1.65 1.60 1.77 1.85 2.13 2.01 1.94 1.93
0.03 0.05 0.13 0.23 0.39 0.74 0.71 0.75 1.02 0.79 0.60 0.46 0.36 0.28 0.27 0.30 0.35 0.46 0.55 0.67 0.80 0.93 1.20 1.56 1.87 2.10 2.11 1.97 1.88 1.92 1.94 1.91 1.78 1.60 1.60 1.51 1.51 1.47 1.38 1.45 1.59 1.57 1.54 1.68 1.77 1.92 1.90 1.96 2.02
0.03 0.05 0.22 0.46 0.73 0.91 0.58 0.75 1.09 0.66 0.48 0.37 0.32 0.28 0.25 0.23 0.31 0.43 0.51 0.61 0.67 0.72 0.91 1.20 1.40 1.55 1.75 1.85 1.85 1.81 1.92 1.92 1.73 1.54 1.50 1.51 1.38 1.33 1.36 1.49 1.72 1.66 1.67 1.71 1.88 1.88 1.83 1.90 1.94
0.03 0.04 0.10 0.19 0.33 0.51 0.58 1.19 1.04 0.49 0.34 0.29 0.26 0.26 0.23 0.22 0.26 0.40 0.50 0.54 0.55 0.56 0.73 0.90 1.08 1.30 1.54 1.68 1.73 1.71 1.66 1.55 1.52 1.62 1.52 1.47 1.45 1.41 1.36 1.48 1.54 1.58 1.66 1.68 2.04 1.84 1.73 1.78 1.76
0.03 0.04 0.06 0.08 0.12 0.34 0.67 0.85 0.59 0.32 0.29 0.31 0.28 0.28 0.27 0.29 0.36 0.42 0.53 0.55 0.47 0.49 0.59 0.67 0.87 1.08 1.23 1.42 1.54 1.47 1.50 1.40 1.41 1.48 1.44 1.41 1.53 1.52 1.46 1.41 1.43 1.52 1.67 1.82 1.97 1.86 1.85 1.89 1.70
0.03 0.03 0.04 0.04 0.08 0.24 0.51 0.75 0.78 0.51 0.39 0.34 0.34 0.36 0.34 0.38 0.49 0.52 0.51 0.54 0.48 0.48 0.58 0.66 0.82 0.95 1.02 1.19 1.28 1.20 1.38 1.43 1.55 1.51 1.42 1.37 1.37 1.42 1.48 1.51 1.48 1.56 1.65 1.83 1.96 1.96 2.05 2.09 1.91
0.05 0.04 0.03 0.04 0.05 0.12 0.36 0.54 0.58 0.54 0.49 0.37 0.34 0.39 0.46 0.45 0.56 0.55 0.51 0.54 0.52 0.53 0.59 0.65 0.79 0.90 0.96 1.11 1.18 1.24 1.32 1.38 1.44 1.46 1.46 1.45 1.42 1.45 1.48 1.54 1.58 1.59 1.65 1.82 1.93 1.81 2.02 2.13 2.17
0.07 0.08 0.08 0.07 0.06 0.08 0.17 0.31 0.32 0.37 0.43 0.37 0.37 0.46 0.51 0.39 0.42 0.50 0.53 0.60 0.52 0.55 0.59 0.63 0.73 0.82 0.89 1.08 1.23 1.29 1.42 1.46 1.41 1.41 1.60 1.63 1.60 1.57 1.57 1.63 1.72 1.71 1.73 1.85 1.81 1.68 1.76 1.95 2.13

GEFSSGP_prec_meanprecacc_264.txt.gz
Total_Precipitation_Accumulation
0.11 0.31 0.61 1.00 1.84 2.02 1.39 0.83 0.61 0.52 0.51 0.46 0.44 0.45 0.60 0.96 1.40 2.03 1.54 1.11 1.18 1.37 1.57 1.92 2.10 1.90 1.79 1.67 1.79 1.83 1.73 1.59 1.48 1.46 1.44 1.38 1.30 1.13 0.97 0.89 0.89 0.93 0.91 0.79 0.85 0.88 0.83 0.92 1.03
0.26 0.49 0.73 1.28 1.90 1.49 1.06 0.72 0.59 0.43 0.40 0.45 0.58 0.64 0.60 0.75 0.72 0.93 1.22 1.24 1.05 1.21 1.47 1.51 1.82 1.76 1.67 1.60 1.69 1.67 1.58 1.41 1.37 1.32 1.28 1.22 1.21 1.07 0.86 0.80 0.83 0.86 0.83 0.81 0.89 0.90 0.88 0.90 0.98
0.38 0.56 0.88 1.41 1.29 0.82 0.66 0.51 0.41 0.39 0.44 0.55 0.67 0.72 0.74 0.85 0.79 1.04 1.23 1.09 1.08 1.14 1.37 1.61 1.73 1.58 1.52 1.46 1.50 1.48 1.46 1.40 1.34 1.25 1.24 1.14 1.08 1.00 0.86 0.80 0.81 0.84 0.85 0.82 0.86 0.96 0.97 0.95 0.98
0.47 0.69 0.87 1.00 0.71 0.36 0.27 0.28 0.30 0.41 0.60 0.80 0.87 0.92 0.89 0.83 0.86 1.07 1.19 0.99 0.98 0.94 1.05 1.36 1.51 1.40 1.43 1.35 1.30 1.37 1.41 1.43 1.35 1.23 1.16 1.13 1.09 1.07 0.92 0.80 0.80 0.86 0.91 0.90 0.91 1.04 1.06 0.96 0.96
0.44 0.76 1.03 0.80 0.42 0.29 0.22 0.22 0.32 0.47 0.67 0.83 0.92 1.13 1.30 1.11 0.94 1.06 1.01 0.93 0.88 0.89 0.96 1.15 1.42 1.32 1.29 1.26 1.24 1.32 1.38 1.40 1.28 1.17 1.05 1.07 1.10 1.02 0.89 0.84 0.83 0.82 0.87 0.94 1.00 1.05 1.06 1.03 1.07
0.58 0.86 0.86 0.61 0.33 0.24 0.23 0.26 0.33 0.46 0.65 0.83 1.16 1.39 1.57 1.45 1.29 1.19 1.02 1.12 1.03 0.88 0.89 1.08 1.37 1.33 1.28 1.27 1.29 1.39 1.43 1.30 1.20 1.08 0.99 0.99 1.02 0.97 0.93 0.92 0.91 0.83 0.88 0.99 1.04 1.03 0.98 1.02 1.14
0.53 0.67 0.54 0.40 0.30 0.23 0.22 0.26 0.33 0.50 0.68 0.94 1.28 1.50 1.56 1.58 1.48 1.32 1.22 1.31 1.39 1.19 1.14 1.13 1.19 1.23 1.28 1.44 1.52 1.57 1.49 1.26 1.15 1.09 1.03 0.95 0.92 0.91 0.90 0.98 1.00 0.92 0.94 1.03 1.10 1.07 1.05 1.10 1.21
0.32 0.45 0.35 0.23 0.27 0.25 0.21 0.24 0.36 0.59 0.79 1.02 1.23 1.44 1.69 1.51 1.39 1.49 1.74 1.91 2.03 1.87 1.72 1.49 1.35 1.44 1.34 1.42 1.60 1.68 1.42 1.20 1.14 1.13 1.08 1.05 1.09 1.08 1.14 1.10 1.07 1.13 1.21 1.25 1.31 1.26 1.20 1.29 1.38
0.25 0.39 0.28 0.14 0.16 0.22 0.20 0.24 0.33 0.43 0.66 0.93 1.13 1.26 1.26 1.24 1.42 1.76 2.22 2.33 2.23 2.31 2.11 1.88 1.73 1.59 1.57 1.55 1.55 1.78 1.56 1.34 1.40 1.54 1.48 1.53 1.85 1.75 1.80 1.46 1.38 1.52 1.71 1.75 1.78 1.76 1.66 1.57 1.52
0.22 0.28 0.16 0.07 0.04 0.08 0.15 0.23 0.32 0.48 0.92 1.54 1.53 1.23 1.05 1.25 1.56 1.84 2.19 2.48 2.19 2.34 2.09 1.99 2.00 1.73 1.64 1.71 2.05 2.45 2.05 1.89 1.93 2.13 2.02 2.33 2.42 2.31 1.69 1.70 1.93 2.08 2.42 2.55 2.57 2.60 2.29 1.97 1.84
0.16 0.15 0.10 0.04 0.03 0.03 0.07 0.16 0.25 0.52 1.02 1.75 1.93 1.50 1.31 1.41 1.80 1.82 2.08 2.33 2.36 2.33 2.25 1.99 2.24 1.99 1.99 2.29 2.37 2.51 2.51 2.39 2.37 2.41 2.39 2.65 2.39 2.07 1.96 2.28 2.65 2.87 3.02 3.19 3.23 3.14 2.63 2.57 2.75
0.10 0.08 0.05 0.03 0.02 0.03 0.11 0.20 0.30 0.42 0.89 1.25 1.22 1.12 1.27 1.49 1.84 2.06 2.12 2.37 2.45 2.34 2.31 2.29 2.43 2.46 2.57 2.56 2.45 2.32 2.07 2.07 2.23 2.37 2.32 2.51 2.60 2.60 2.56 2.72 2.84 3.09 3.46 3.83 3.76 3.73 3.42 3.35 3.11
0.07 0.09 0.09 0.05 0.05 0.06 0.12 0.17 0.29 0.47 0.61 0.73 0.71 0.92 1.35 1.63 2.03 2.37 2.72 2.94 3.01 2.94 2.83 2.89 3.07 3.01 2.93 2.84 2.51 2.12 1.95 1.84 1.88 1.97 2.08 2.07 2.42 2.71 2.74 2.58 2.63 2.59 2.80 3.25 3.82 3.73 3.89 3.81 3.41
0.07 0.07 0.09 0.08 0.06 0.07 0.12 0.17 0.35 0.58 0.58 0.69 0.86 1.11 1.49 1.93 2.30 2.56 3.31 3.72 3.95 3.90 3.75 3.58 3.68 3.29 3.03 2.85 2.51 2.25 1.99 2.02 1.92 1.81 1.77 1.96 2.23 2.50 2.47 2.43 2.64 2.68 2.60 2.76 3.22 3.37 3.76 3.70 3.32
0.11 0.13 0.13 0.12 0.07 0.08 0.15 0.36 0.55 0.63 0.81 0.86 1.06 1.27 1.59 2.17 2.63 3.10 3.63 4.37 4.81 5.01 4.65 4.07 3.81 3.52 3.26 3.01 2.58 2.24 2.09 1.92 2.04 2.01 1.87 1.89 2.00 2.20 2.18 2.28 2.29 2.35 2.26 2.34 2.56 2.77 3.05 3.01 2.86
0.15 0.25 0.31 0.17 0.11 0.11 0.20 0.64 0.78 0.64 0.97 1.30 1.25 1.51 1.90 2.42 2.90 3.56 4.24 5.07 5.62 5.80 5.24 4.53 3.82 3.86 3.73 3.44 2.79 2.31 2.09 2.02 1.98 1.91 1.73 1.61 1.69 1.70 1.80 1.84 1.82 1.83 1.68 1.80 2.15 2.23 2.50 2.72 2.77
0.16 0.23 0.30 0.27 0.16 0.15 0.24 0.66 0.84 0.65 0.86 1.17 1.38 1.62 2.03 2.41 2.74 3.37 4.00 4.80 5.41 5.94 5.76 5.15 5.00 4.78 4.10 3.39 2.79 2.35 2.08 2.02 1.84 1.74 1.65 1.56 1.48 1.47 1.64 1.78 1.83 1.53 1.52 1.62 1.51 1.93 2.17 2.42 2.50
0.14 0.16 0.23 0.32 0.22 0.22 0.31 0.51 0.79 0.84 1.05 1.33 1.45 1.56 1.82 2.03 2.36 2.84 3.33 3.77 4.37 4.88 4.79 4.76 4.91 4.48 3.88 3.24 2.79 2.51 2.21 1.89 1.70 1.66 1.68 1.57 1.54 1.55 1.75 1.61 1.58 1.44 1.68 1.89 1.97 2.27 2.21 2.15 2.21
0.11 0.13 0.20 0.27 0.23 0.29 0.41 0.55 0.78 0.95 1.19 1.40 1.43 1.37 1.43 1.66 1.94 2.22 2.59 2.94 3.16 3.33 3.45 3.77 3.99 3.74 3.29 2.89 2.43 2.25 2.20 1.96 1.71 1.56 1.44 1.53 1.49 1.69 1.90 1.68 1.97 1.74 1.73 1.84 1.88 2.04 2.01 1.86 1.82
0.10 0.12 0.20 0.25 0.20 0.25 0.41 0.70 0.88 0.96 1.00 1.12 1.24 1.16 1.22 1.48 1.52 1.62 1.80 2.13 2.27 2.47 2.78 3.15 3.39 3.24 2.71 2.50 2.33 2.21 2.15 1.98 1.93 1.77 1.69 1.49 1.47 1.58 1.54 1.88 1.75 1.79 1.92 1.95 2.02 2.14 2.12 1.89 1.85
0.09 0.11 0.14 0.18 0.19 0.29 0.45 0.99 1.07 0.95 0.87 0.80 0.95 1.00 0.97 1.12 1.25 1.31 1.28 1.45 1.79 2.30 2.46 2.40 2.65 2.83 2.57 2.47 2.41 2.32 2.25 2.06 2.10 2.02 1.86 1.49 1.33 1.37 1.45 1.52 1.59 1.84 1.67 1.99 2.22 2.15 2.22 2.19 2.00
0.09 0.08 0.09 0.11 0.16 0.42 0.54 1.03 1.12 0.97 0.95 0.77 0.75 0.80 0.74 0.70 0.85 1.02 1.00 1.12 1.33 1.63 1.90 2.12 2.37 2.54 2.48 2.36 2.16 2.03 1.85 1.77 1.78 1.79 1.77 1.62 1.49 1.33 1.35 1.38 1.59 1.81 1.64 2.11 1.80 1.92 2.13 2.28 2.09
0.04 0.04 0.06 0.11 0.19 0.39 0.51 0.88 1.09 0.93 1.05 0.80 0.53 0.43 0.40 0.40 0.50 0.67 0.78 0.89 0.95 1.14 1.53 1.98 2.34 2.58 2.46 2.15 1.97 1.99 1.88 1.83 1.75 1.69 1.89 1.76 1.67 1.48 1.30 1.41 1.60 1.68 1.64 1.83 1.92 2.21 2.08 2.02 1.99
0.03 0.05 0.13 0.24 0.39 0.74 0.71 0.75 1.02 0.80 0.63 0.47 0.36 0.28 0.28 0.31 0.36 0.47 0.55 0.68 0.80 0.94 1.21 1.58 1.92 2.16 2.17 2.01 1.91 1.95 1.98 1.96 1.83 1.65 1.64 1.54 1.53 1.49 1.40 1.48 1.64 1.61 1.60 1.75 1.84 1.99 1.97 2.03 2.10
0.03 0.05 0.24 0.47 0.74 0.92 0.58 0.75 1.09 0.67 0.49 0.37 0.32 0.28 0.25 0.24 0.32 0.44 0.52 0.61 0.68 0.73 0.92 1.22 1.44 1.60 1.81 1.90 1.89 1.86 1.97 1.98 1.78 1.58 1.55 1.55 1.40 1.35 1.38 1.52 1.76 1.70 1.72 1.76 1.93 1.95 1.91 1.96 2.00
0.03 0.04 0.12 0.21 0.34 0.53 0.59 1.19 1.04 0.49 0.34 0.29 0.26 0.26 0.23 0.22 0.29 0.41 0.51 0.56 0.56 0.57 0.74 0.91 1.10 1.33 1.59 1.75 1.81 1.81 1.76 1.63 1.57 1.66 1.55 1.51 1.48 1.44 1.39 1.51 1.57 1.61 1.69 1.73 2.11 1.89 1.79 1.85 1.81
0.03 0.04 0.06 0.08 0.12 0.36 0.69 0.86 0.59 0.32 0.29 0.31 0.28 0.28 0.27 0.30 0.39 0.43 0.53 0.59 0.51 0.51 0.60 0.68 0.88 1.09 1.28 1.54 1.69 1.64 1.64 1.51 1.49 1.55 1.49 1.43 1.55 1.54 1.49 1.44 1.47 1.56 1.71 1.86 2.03 1.92 1.91 1.97 1.76
0.04 0.03 0.04 0.05 0.09 0.26 0.53 0.77 0.80 0.51 0.39 0.34 0.34 0.36 0.34 0.38 0.49 0.53 0.51 0.56 0.53 0.53 0.60 0.67 0.82 0.95 1.04 1.23 1.34 1.26 1.46 1.50 1.62 1.58 1.48 1.41 1.40 1.44 1.52 1.56 1.54 1.62 1.70 1.87 2.01 2.01 2.11 2.14 1.96
0.05 0.04 0.03 0.04 0.06 0.14 0.38 0.56 0.60 0.54 0.49 0.37 0.34 0.40 0.47 0.46 0.58 0.59 0.52 0.55 0.55 0.60 0.64 0.66 0.80 0.90 0.96 1.12 1.19 1.26 1.37 1.45 1.53 1.52 1.51 1.50 1.47 1.50 1.54 1.61 1.64 1.66 1.71 1.88 1.98 1.86 2.07 2.17 2.21
0.07 0.09 0.08 0.07 0.06 0.09 0.18 0.32 0.33 0.37 0.43 0.37 0.37 0.48 0.55 0.41 0.45 0.56 0.55 0.60 0.53 0.57 0.63 0.67 0.75 0.82 0.89 1.09 1.24 1.30 1.44 1.50 1.46 1.45 1.64 1.68 1.65 1.63 1.63 1.68 1.78 1.78 1.80 1.91 1.87 1.72 1.81 1.99 2.18

GEFSSGP_prec_meanprecacc_270.txt.gz
Total_Precipitation_Accumulation
0.13 0.37 0.71 1.11 1.96 2.17 1.50 0.88 0.64 0.54 0.54 0.49 0.45 0.45 0.63 0.98 1.45 2.13 1.71 1.27 1.30 1.46 1.66 2.01 2.18 1.96 1.84 1.74 1.85 1.90 1.79 1.66 1.52 1.50 1.47 1.41 1.33 1.15 0.97 0.90 0.90 0.94 0.92 0.80 0.86 0.89 0.85 0.93 1.05
0.30 0.57 0.84 1.39 2.01 1.62 1.16 0.76 0.62 0.45 0.44 0.48 0.59 0.65 0.61 0.76 0.74 0.99 1.40 1.42 1.12 1.24 1.51 1.57 1.89 1.81 1.71 1.65 1.76 1.72 1.63 1.46 1.41 1.34 1.31 1.26 1.26 1.09 0.87 0.81 0.84 0.87 0.84 0.83 0.91 0.92 0.90 0.92 1.00
0.46 0.65 1.00 1.55 1.44 0.93 0.73 0.53 0.42 0.40 0.45 0.56 0.68 0.73 0.76 0.87 0.81 1.08 1.37 1.21 1.11 1.15 1.39 1.65 1.76 1.61 1.55 1.50 1.55 1.52 1.50 1.43 1.37 1.27 1.26 1.18 1.13 1.03 0.87 0.81 0.82 0.85 0.86 0.83 0.88 0.99 0.99 0.97 1.00
0.55 0.80 0.97 1.15 0.91 0.46 0.30 0.29 0.30 0.43 0.61 0.82 0.87 0.92 0.91 0.86 0.87 1.10 1.25 1.03 1.01 0.95 1.06 1.38 1.53 1.43 1.45 1.38 1.32 1.40 1.45 1.46 1.38 1.25 1.19 1.18 1.15 1.11 0.94 0.81 0.80 0.87 0.92 0.91 0.93 1.06 1.07 0.97 0.98
0.52 0.86 1.14 0.92 0.59 0.35 0.23 0.22 0.33 0.49 0.69 0.85 0.93 1.13 1.33 1.17 0.97 1.11 1.08 0.97 0.91 0.90 0.96 1.16 1.43 1.34 1.31 1.27 1.26 1.34 1.41 1.44 1.32 1.20 1.08 1.13 1.15 1.05 0.91 0.85 0.83 0.82 0.88 0.97 1.01 1.06 1.06 1.04 1.08
0.68 0.99 0.94 0.68 0.42 0.26 0.24 0.27 0.34 0.47 0.67 0.85 1.17 1.39 1.62 1.53 1.33 1.25 1.09 1.16 1.06 0.89 0.90 1.10 1.40 1.35 1.28 1.28 1.31 1.43 1.46 1.34 1.24 1.14 1.04 1.03 1.05 1.01 0.95 0.93 0.92 0.84 0.89 1.03 1.05 1.04 0.99 1.03 1.15
0.70 0.77 0.60 0.47 0.36 0.25 0.23 0.26 0.35 0.52 0.70 0.95 1.28 1.50 1.60 1.66 1.57 1.43 1.30 1.37 1.45 1.22 1.16 1.16 1.21 1.24 1.29 1.45 1.54 1.61 1.55 1.31 1.21 1.15 1.06 0.98 0.96 0.95 0.92 0.99 1.00 0.92 0.95 1.04 1.11 1.08 1.06 1.11 1.22
0.43 0.51 0.39 0.27 0.32 0.28 0.22 0.25 0.37 0.60 0.81 1.02 1.24 1.44 1.70 1.57 1.49 1.61 1.86 2.04 2.12 1.93 1.78 1.53 1.38 1.47 1.36 1.44 1.63 1.73 1.48 1.25 1.17 1.17 1.10 1.08 1.13 1.12 1.16 1.11 1.08 1.14 1.23 1.27 1.33 1.27 1.22 1.31 1.39
0.28 0.42 0.31 0.17 0.19 0.23 0.21 0.25 0.34 0.44 0.67 0.94 1.14 1.26 1.27 1.28 1.51 1.87 2.32 2.44 2.32 2.38 2.18 1.94 1.77 1.61 1.59 1.58 1.60 1.84 1.62 1.38 1.43 1.58 1.50 1.56 1.89 1.80 1.84 1.47 1.39 1.55 1.72 1.77 1.80 1.78 1.68 1.60 1.54
0.24 0.30 0.18 0.09 0.06 0.09 0.16 0.24 0.33 0.49 0.96 1.55 1.54 1.23 1.07 1.29 1.63 1.92 2.24 2.53 2.24 2.39 2.15 2.04 2.04 1.77 1.68 1.76 2.10 2.50 2.09 1.92 1.96 2.17 2.05 2.37 2.46 2.35 1.73 1.73 1.97 2.12 2.46 2.58 2.60 2.63 2.33 2.00 1.85
0.18 0.16 0.11 0.05 0.04 0.04 0.07 0.17 0.26 0.55 1.07 1.77 1.94 1.51 1.34 1.44 1.84 1.86 2.11 2.37 2.40 2.35 2.27 2.02 2.27 2.04 2.05 2.34 2.43 2.56 2.54 2.41 2.40 2.46 2.43 2.69 2.43 2.11 2.01 2.32 2.67 2.89 3.04 3.21 3.25 3.16 2.66 2.60 2.78
0.11 0.09 0.05 0.03 0.03 0.03 0.12 0.21 0.32 0.47 0.95 1.27 1.22 1.13 1.29 1.51 1.87 2.08 2.13 2.40 2.49 2.35 2.32 2.31 2.45 2.51 2.64 2.61 2.48 2.34 2.09 2.10 2.29 2.43 2.38 2.57 2.63 2.63 2.61 2.77 2.87 3.11 3.48 3.86 3.79 3.77 3.47 3.39 3.15
0.08 0.10 0.10 0.07 0.06 0.07 0.14 0.18 0.31 0.52 0.69 0.76 0.72 0.93 1.36 1.64 2.04 2.38 2.73 2.97 3.05 2.95 2.84 2.91 3.09 3.04 2.97 2.88 2.56 2.15 1.99 1.89 1.96 2.05 2.15 2.12 2.44 2.74 2.77 2.61 2.66 2.61 2.83 3.28 3.85 3.77 3.92 3.83 3.44
0.07 0.07 0.10 0.12 0.08 0.13 0.16 0.18 0.37 0.66 0.67 0.72 0.87 1.13 1.51 1.95 2.32 2.57 3.34 3.75 3.99 3.92 3.76 3.60 3.70 3.31 3.05 2.89 2.56 2.32 2.05 2.08 1.98 1.87 1.81 1.99 2.25 2.52 2.49 2.46 2.67 2.70 2.63 2.79 3.26 3.41 3.78 3.73 3.36
0.12 0.14 0.14 0.15 0.09 0.11 0.17 0.39 0.57 0.69 0.87 0.91 1.08 1.29 1.60 2.19 2.66 3.12 3.66 4.41 4.85 5.03 4.67 4.10 3.83 3.54 3.29 3.05 2.66 2.35 2.19 2.00 2.12 2.09 1.91 1.93 2.03 2.22 2.22 2.31 2.31 2.37 2.28 2.37 2.59 2.80 3.07 3.04 2.90
0.17 0.27 0.33 0.19 0.12 0.13 0.21 0.65 0.80 0.67 1.00 1.34 1.28 1.54 1.92 2.44 2.92 3.59 4.28 5.11 5.66 5.82 5.27 4.56 3.84 3.88 3.76 3.47 2.82 2.41 2.22 2.12 2.06 1.97 1.78 1.65 1.73 1.74 1.85 1.87 1.83 1.85 1.71 1.83 2.19 2.27 2.53 2.75 2.81
0.18 0.25 0.32 0.29 0.17 0.16 0.26 0.68 0.86 0.69 0.90 1.20 1.41 1.64 2.07 2.43 2.76 3.39 4.03 4.85 5.46 5.96 5.78 5.18 5.02 4.80 4.13 3.43 2.81 2.41 2.19 2.13 1.93 1.83 1.72 1.62 1.53 1.53 1.68 1.80 1.85 1.56 1.55 1.65 1.55 1.97 2.22 2.46 2.53
0.17 0.17 0.25 0.34 0.24 0.24 0.33 0.54 0.82 0.87 1.09 1.36 1.47 1.59 1.86 2.07 2.38 2.87 3.36 3.81 4.41 4.91 4.82 4.78 4.93 4.51 3.90 3.27 2.81 2.54 2.28 1.97 1.77 1.74 1.75 1.62 1.57 1.58 1.78 1.64 1.60 1.46 1.72 1.93 2.01 2.31 2.25 2.19 2.25
0.13 0.13 0.21 0.28 0.24 0.31 0.45 0.59 0.81 0.98 1.25 1.49 1.45 1.39 1.47 1.71 1.97 2.25 2.62 2.98 3.19 3.38 3.50 3.80 4.01 3.75 3.31 2.92 2.46 2.28 2.22 1.98 1.74 1.60 1.50 1.58 1.51 1.70 1.91 1.70 1.98 1.77 1.77 1.88 1.92 2.08 2.06 1.90 1.87
0.11 0.12 0.21 0.27 0.22 0.27 0.43 0.73 0.90 0.99 1.04 1.17 1.27 1.18 1.24 1.51 1.55 1.63 1.82 2.15 2.30 2.53 2.85 3.20 3.42 3.26 2.73 2.52 2.34 2.22 2.16 1.99 1.94 1.80 1.73 1.52 1.48 1.59 1.54 1.89 1.77 1.81 1.95 1.98 2.06 2.18 2.18 1.96 1.90
0.10 0.12 0.15 0.20 0.21 0.31 0.46 1.01 1.08 0.96 0.89 0.81 0.96 1.01 1.00 1.17 1.29 1.34 1.33 1.49 1.82 2.38 2.59 2.49 2.71 2.88 2.61 2.50 2.43 2.34 2.27 2.07 2.12 2.05 1.89 1.51 1.34 1.38 1.45 1.53 1.60 1.85 1.69 2.01 2.25 2.19 2.27 2.24 2.05
0.09 0.09 0.10 0.13 0.18 0.45 0.57 1.06 1.14 0.98 0.97 0.78 0.76 0.80 0.75 0.72 0.89 1.04 1.04 1.14 1.35 1.66 1.97 2.24 2.51 2.65 2.55 2.41 2.20 2.05 1.86 1.78 1.79 1.80 1.78 1.64 1.50 1.34 1.36 1.39 1.61 1.82 1.66 2.13 1.83 1.95 2.16 2.31 2.11
0.05 0.05 0.07 0.12 0.20 0.42 0.54 0.91 1.11 0.95 1.07 0.82 0.54 0.44 0.40 0.41 0.52 0.69 0.80 0.90 0.96 1.15 1.56 2.02 2.41 2.68 2.53 2.21 2.03 2.04 1.91 1.85 1.77 1.71 1.92 1.78 1.68 1.49 1.31 1.44 1.62 1.71 1.67 1.86 1.96 2.24 2.11 2.05 2.03
0.03 0.05 0.13 0.24 0.40 0.76 0.73 0.78 1.05 0.82 0.67 0.50 0.38 0.30 0.29 0.31 0.37 0.49 0.57 0.69 0.81 0.95 1.23 1.60 1.95 2.19 2.20 2.04 1.96 2.00 2.03 2.00 1.86 1.68 1.69 1.58 1.56 1.51 1.42 1.50 1.66 1.63 1.62 1.79 1.87 2.03 2.01 2.06 2.13
0.03 0.06 0.24 0.48 0.74 0.94 0.60 0.77 1.10 0.68 0.50 0.39 0.32 0.29 0.26 0.24 0.36 0.49 0.54 0.63 0.69 0.74 0.94 1.24 1.46 1.61 1.82 1.92 1.91 1.88 2.00 2.03 1.83 1.62 1.59 1.58 1.44 1.38 1.40 1.53 1.78 1.72 1.75 1.79 1.96 1.99 1.94 1.99 2.03
0.03 0.05 0.12 0.22 0.35 0.54 0.60 1.21 1.06 0.50 0.36 0.31 0.27 0.26 0.23 0.23 0.33 0.45 0.53 0.58 0.59 0.60 0.77 0.94 1.12 1.35 1.60 1.76 1.83 1.82 1.79 1.67 1.62 1.70 1.61 1.57 1.54 1.48 1.42 1.53 1.59 1.63 1.72 1.76 2.15 1.93 1.82 1.87 1.84
0.04 0.05 0.07 0.09 0.13 0.37 0.71 0.90 0.62 0.34 0.32 0.34 0.30 0.30 0.28 0.31 0.40 0.46 0.59 0.65 0.56 0.58 0.68 0.73 0.90 1.11 1.30 1.55 1.71 1.66 1.66 1.54 1.53 1.60 1.53 1.48 1.59 1.58 1.52 1.47 1.50 1.59 1.74 1.90 2.05 1.94 1.94 1.99 1.78
0.04 0.03 0.05 0.05 0.11 0.27 0.56 0.80 0.84 0.55 0.41 0.37 0.36 0.38 0.36 0.40 0.51 0.59 0.61 0.65 0.60 0.59 0.70 0.75 0.87 0.99 1.07 1.25 1.35 1.27 1.48 1.52 1.64 1.62 1.53 1.46 1.45 1.48 1.55 1.59 1.57 1.66 1.74 1.91 2.04 2.03 2.14 2.18 1.99
0.06 0.04 0.04 0.04 0.07 0.15 0.42 0.61 0.62 0.56 0.50 0.38 0.35 0.42 0.49 0.48 0.60 0.64 0.63 0.65 0.61 0.64 0.69 0.71 0.84 0.94 1.01 1.16 1.23 1.29 1.39 1.47 1.54 1.54 1.54 1.53 1.52 1.55 1.57 1.64 1.68 1.70 1.75 1.92 2.03 1.93 2.14 2.22 2.24
0.08 0.09 0.08 0.07 0.07 0.10 0.21 0.34 0.35 0.39 0.45 0.38 0.38 0.49 0.56 0.42 0.47 0.62 0.69 0.74 0.57 0.60 0.67 0.71 0.78 0.85 0.93 1.13 1.30 1.38 1.50 1.54 1.49 1.47 1.66 1.70 1.68 1.67 1.67 1.73 1.83 1.81 1.84 1.95 1.91 1.78 1.89 2.04 2.21